Middletown, OH

3:41 AM EDT on March 26, 2017 (GMT -0400)
Hook Field Municipal

Weather History for KMWO - June, 2013

Change the Weather History Date:

Monday, June 24, 2013

  Actual Average (KFFO) Record (KFFO)
Temperature  
Mean Temperature 74 °F -  
Max Temperature 87 °F 80 °F 93 °F (2005)
Min Temperature 62 °F 60 °F 53 °F (2001)
Cooling Degree Days 10    
Growing Degree Days 24 (Base 50)    
Moisture  
Dew Point 70 °F    
Average Humidity 87    
Maximum Humidity 100    
Minimum Humidity 64    
Precipitation  
Precipitation 0.00 in - - ()
Sea Level Pressure  
Sea Level Pressure 30.11 in    
Wind  
Wind Speed 3 mph (WSW)    
Max Wind Speed 13 mph    
Max Gust Speed 18 mph    
Visibility 7 miles    
Events Fog    
Averages and records for this station are not official NWS values.
T = Trace of Precipitation, MM = Missing Value Source: NWS Daily Summary

Daily Weather History Graph

Daily Weather History Graph

Search for Another Location

Airport or City:

Trip Planner

Search our weather history database for the weather conditions in past years. The results will help you decide how hot, cold, wet, or windy it might be!

Date:

Astronomy

Jun. 24, 2013 Rise Set
Actual Time 6:11 AM EDT 9:08 PM EDT
Civil Twilight 5:38 AM EDT 9:41 PM EDT
Nautical Twilight 4:57 AM EDT 10:22 PM EDT
Astronomical Twilight 4:09 AM EDT 11:10 PM EDT
Moon 10:11 PM EDT (6/24) 7:37 AM EDT (6/24)
Length of Visible Light 16h 02m
Length of Day
14h 57m
Full, 98% of the Moon is Illuminated
Jun 24
Full
Jun 30
Last Quarter
Jul 8
New
Jul 15
First Quarter
Jul 22
Full

Hourly Weather History & Observations

Time (EDT) Temp. Heat Index Dew Point Humidity Pressure Visibility Wind Dir Wind Speed Gust Speed Precip Events Conditions
12:15 AM 67.6 °F - 67.6 °F 100% 30.13 in 2.5 mi WSW 3.5 mph - N/A   Clear
12:35 AM 67.6 °F - 67.6 °F 100% 30.13 in 3.0 mi Calm Calm - N/A   Clear
12:55 AM 67.6 °F - 67.6 °F 100% 30.14 in 4.0 mi Calm Calm - N/A   Clear
1:15 AM 67.6 °F - 67.6 °F 100% 30.14 in 2.5 mi NW 3.5 mph - N/A   Clear
1:35 AM 67.6 °F - 67.6 °F 100% 30.14 in 3.0 mi Calm Calm - N/A   Clear
1:55 AM 67.6 °F - 67.6 °F 100% 30.14 in 4.0 mi Calm Calm - N/A   Scattered Clouds
2:15 AM 67.5 °F - 67.5 °F 100% 30.13 in 1.8 mi Calm Calm - N/A   Scattered Clouds
2:35 AM 67.6 °F - 67.6 °F 100% 30.13 in 2.5 mi Calm Calm - N/A   Clear
2:55 AM 67.6 °F - 67.6 °F 100% 30.12 in 1.8 mi Calm Calm - N/A   Mist
3:15 AM 66.2 °F - 66.2 °F 100% 30.12 in 2.5 mi Calm Calm - N/A   Clear
3:35 AM 65.3 °F - 65.3 °F 100% 30.12 in 2.5 mi Calm Calm - N/A   Clear
3:55 AM 65.3 °F - 65.3 °F 100% 30.12 in 1.2 mi Calm Calm - N/A   Mist
4:15 AM 65.3 °F - 65.3 °F 100% 30.12 in 3.0 mi Calm Calm - N/A   Clear
4:35 AM 65.3 °F - 65.3 °F 100% 30.11 in 3.0 mi Calm Calm - N/A   Clear
4:55 AM 64.4 °F - 64.4 °F 100% 30.11 in 3.0 mi Calm Calm - N/A   Scattered Clouds
5:15 AM 65.3 °F - 65.3 °F 100% 30.11 in 2.0 mi Calm Calm - N/A   Scattered Clouds
5:35 AM 62.8 °F - 62.8 °F 100% 30.11 in 1.5 mi Calm Calm - N/A   Mist
5:55 AM 62.6 °F - 62.6 °F 100% 30.12 in 0.5 mi Calm Calm - N/A Fog Fog
6:15 AM 62.6 °F - 62.6 °F 100% 30.12 in 1.2 mi Calm Calm - N/A   Mist
6:35 AM 62.6 °F - 62.6 °F 100% 30.13 in 1.5 mi Calm Calm - N/A   Mist
6:55 AM 64.9 °F - 64.9 °F 100% 30.13 in 2.0 mi Calm Calm - N/A   Clear
7:15 AM 67.6 °F - 67.6 °F 100% 30.13 in 1.8 mi Calm Calm - N/A   Mist
7:35 AM 67.6 °F - 67.6 °F 100% 30.14 in 2.0 mi Calm Calm - N/A   Clear
7:55 AM 67.6 °F - 67.6 °F 100% 30.15 in 3.0 mi Calm Calm - N/A   Scattered Clouds
8:15 AM 68.2 °F - 68.2 °F 100% 30.15 in 4.0 mi Calm Calm - N/A   Scattered Clouds
8:35 AM 72.7 °F - 72.7 °F 100% 30.15 in 7.0 mi SW 3.5 mph - N/A   Clear
8:55 AM 72.7 °F - 72.0 °F 98% 30.16 in 5.0 mi Calm Calm - N/A   Clear
9:15 AM 72.7 °F - 71.4 °F 96% 30.16 in 7.0 mi WSW 3.5 mph - N/A   Clear
9:35 AM 75.2 °F - 73.2 °F 94% 30.16 in 7.0 mi SSW 5.8 mph - N/A   Clear
9:55 AM 75.2 °F - 72.5 °F 91% 30.16 in 7.0 mi SW 5.8 mph - N/A   Clear
10:15 AM 78.4 °F - 73.0 °F 83% 30.16 in 10.0 mi SW 12.7 mph - N/A   Clear
10:35 AM 79.0 °F - 73.2 °F 82% 30.16 in 10.0 mi SW 10.4 mph 16.1 mph N/A   Scattered Clouds
10:55 AM 77.9 °F - 72.3 °F 83% 30.16 in 10.0 mi WSW 6.9 mph - N/A   Scattered Clouds
11:15 AM 77.9 °F - 72.3 °F 83% 30.17 in 10.0 mi SW 8.1 mph - N/A   Mostly Cloudy
11:35 AM 77.9 °F - 72.5 °F 83% 30.17 in 10.0 mi WSW 6.9 mph - N/A   Mostly Cloudy
11:55 AM 79.0 °F - 72.0 °F 79% 30.17 in 10.0 mi West 9.2 mph - N/A   Mostly Cloudy
12:15 PM 77.9 °F - 70.7 °F 78% 30.16 in 10.0 mi WNW 6.9 mph - N/A   Scattered Clouds
12:35 PM 79.2 °F - 69.4 °F 72% 30.16 in - West 5.8 mph - N/A   Clear
12:55 PM 80.2 °F 83.6 °F 70.5 °F 72% 30.15 in 10.0 mi West 6.9 mph - N/A   Clear
1:15 PM 79.9 °F - 71.1 °F 74% 30.15 in 10.0 mi WSW 8.1 mph - N/A   Scattered Clouds
1:35 PM 80.4 °F 84.4 °F 71.8 °F 75% 30.14 in 10.0 mi West 4.6 mph - N/A   Scattered Clouds
1:55 PM 80.6 °F 84.7 °F 72.1 °F 75% 30.13 in 10.0 mi SW 5.8 mph - N/A   Mostly Cloudy
2:15 PM 80.2 °F 84.2 °F 72.1 °F 76% 30.12 in 10.0 mi WSW 6.9 mph - N/A   Mostly Cloudy
2:35 PM 80.8 °F 85.1 °F 72.1 °F 75% 30.11 in 10.0 mi Calm Calm - N/A   Mostly Cloudy
2:55 PM 81.5 °F 86.3 °F 72.5 °F 74% 30.10 in 10.0 mi Calm Calm - N/A   Scattered Clouds
3:15 PM 82.8 °F 87.9 °F 72.0 °F 70% 30.09 in 10.0 mi SW 10.4 mph - N/A   Scattered Clouds
3:35 PM 84.6 °F 91.4 °F 73.6 °F 69% 30.09 in 10.0 mi West 6.9 mph - N/A   Clear
3:55 PM 82.0 °F 86.7 °F 72.0 °F 71% 30.08 in 10.0 mi WSW 10.4 mph - N/A   Scattered Clouds
4:15 PM 81.5 °F 85.1 °F 70.0 °F 68% 30.08 in 10.0 mi SW 10.4 mph - N/A   Scattered Clouds
4:35 PM 81.5 °F 85.1 °F 70.2 °F 68% 30.07 in 10.0 mi SW 11.5 mph - N/A   Clear
4:55 PM 87.1 °F 94.9 °F 73.8 °F 64% 30.07 in 10.0 mi SW 11.5 mph 18.4 mph N/A   Clear
5:15 PM 87.4 °F 95.8 °F 73.9 °F 64% 30.07 in 10.0 mi SW 11.5 mph - N/A   Clear
5:35 PM 84.2 °F 89.3 °F 71.2 °F 65% 30.06 in 10.0 mi WSW 9.2 mph 16.1 mph N/A   Clear
5:55 PM 82.4 °F 86.5 °F 70.5 °F 67% 30.05 in 10.0 mi WSW 10.4 mph - N/A   Clear
6:15 PM 82.4 °F 86.7 °F 71.1 °F 68% 30.04 in 10.0 mi WSW 6.9 mph - N/A   Clear
6:35 PM 82.8 °F 87.4 °F 71.1 °F 68% 30.04 in 10.0 mi WSW 8.1 mph - N/A   Clear
6:55 PM 82.4 °F 87.0 °F 71.2 °F 69% 30.05 in 10.0 mi West 6.9 mph - N/A   Clear
7:15 PM 81.7 °F 85.8 °F 71.2 °F 70% 30.05 in 10.0 mi WSW 6.9 mph - N/A   Clear
7:35 PM 81.5 °F 86.1 °F 72.1 °F 73% 30.06 in 10.0 mi SW 8.1 mph - N/A   Clear
7:55 PM 80.6 °F 84.7 °F 72.1 °F 75% 30.06 in 10.0 mi WSW 8.1 mph - N/A   Clear
8:15 PM 80.2 °F 84.5 °F 72.9 °F 78% 30.07 in 10.0 mi WSW 6.9 mph - N/A   Clear
8:35 PM 79.0 °F - 72.5 °F 80% 30.06 in 10.0 mi WSW 9.2 mph - N/A   Clear
8:55 PM 77.9 °F - 72.1 °F 82% 30.06 in 10.0 mi SW 10.4 mph - N/A   Clear
9:15 PM 77.9 °F - 73.4 °F 86% 30.06 in 10.0 mi WSW 9.2 mph - N/A   Clear
9:35 PM 75.2 °F - 72.3 °F 91% 30.06 in 10.0 mi WSW 5.8 mph - N/A   Clear
9:55 PM 75.2 °F - 73.0 °F 93% 30.06 in 10.0 mi SW 4.6 mph - N/A   Clear
10:15 PM 73.9 °F - 71.8 °F 93% 30.08 in 10.0 mi West 4.6 mph - N/A   Clear
10:35 PM 75.0 °F - 72.3 °F 91% 30.09 in 10.0 mi WSW 5.8 mph - N/A   Clear
10:55 PM 72.7 °F - 70.5 °F 93% 30.09 in 10.0 mi SW 6.9 mph - N/A   Clear
11:15 PM 73.9 °F - 71.2 °F 91% 30.08 in 10.0 mi SW 6.9 mph - N/A   Clear
11:35 PM 72.7 °F - 71.4 °F 96% 30.10 in 10.0 mi WSW 4.6 mph - N/A   Clear
11:55 PM 72.7 °F - 71.2 °F 95% 30.09 in 10.0 mi SSW 4.6 mph - N/A   Clear